This is the latest recevied weather packets stored in our database for station/object KC1ELF. If no packets are shown the sender has not sent any weather packets the latest 10 day(s).
| Time | Temp. | Humidity | Pressure | Rain* | Wind** | Luminosity | Snow |
|---|---|---|---|---|---|---|---|
| 1777427196 | 6.11° C | 71% | 1020.5 hPa | 0 mm | - | - | - |
| 1777426596 | 6.11° C | 71% | 1020.5 hPa | 0 mm | - | - | - |
| 1777425995 | 6.11° C | 71% | 1020.5 hPa | 0 mm | - | - | - |
| 1777425395 | 6.67° C | 70% | 1020.5 hPa | 0 mm | - | - | - |
| 1777424797 | 6.67° C | 69% | 1020.3 hPa | 0 mm | - | - | - |
| 1777424195 | 6.67° C | 68% | 1020.2 hPa | 0 mm | - | - | - |
| 1777423595 | 6.67° C | 67% | 1020.2 hPa | 0 mm | - | - | - |
| 1777422995 | 7.22° C | 66% | 1020.3 hPa | 0 mm | - | - | - |
| 1777422397 | 7.22° C | 65% | 1020.1 hPa | 0 mm | - | - | - |
| 1777421796 | 7.22° C | 63% | 1020.2 hPa | 0 mm | - | - | - |
| 1777421196 | 7.78° C | 60% | 1020.2 hPa | 0 mm | - | - | - |
| 1777420595 | 7.78° C | 58% | 1020 hPa | 0 mm | - | - | - |
| 1777419996 | 8.33° C | 57% | 1020.1 hPa | 0 mm | - | - | - |
| 1777419397 | 8.33° C | 54% | 1020 hPa | 0 mm | - | - | - |
| 1777418796 | 8.89° C | 52% | 1020 hPa | 0 mm | - | - | - |
| 1777418196 | 8.89° C | 48% | 1020.2 hPa | 0 mm | - | - | - |
| 1777417596 | 9.44° C | 46% | 1020.4 hPa | 0 mm | - | - | - |
| 1777416996 | 9.44° C | 44% | 1020.4 hPa | 0 mm | - | - | - |
| 1777416396 | 10° C | 41% | 1020.2 hPa | 0 mm | - | - | - |
| 1777415797 | 10.56° C | 36% | 1020.5 hPa | 0 mm | - | - | - |
| 1777415197 | 11.11° C | 34% | 1020.7 hPa | 0 mm | - | - | - |
| 1777414596 | 11.11° C | 33% | 1020.7 hPa | 0 mm | - | - | - |
| 1777413995 | 11.67° C | 32% | 1020.8 hPa | 0 mm | - | - | - |
| 1777413395 | 11.67° C | 30% | 1020.8 hPa | 0 mm | - | - | - |
| 1777412797 | 12.22° C | 29% | 1020.8 hPa | 0 mm | - | - | - |
* Rain latest hour (hover to see other rain measurements)
** Current wind speed in m/s (hover to see current wind gust speed)